Location: Flitcham
(52.8000°N, 0.5667°E)
Time: 15:48:30
(UTC+00:00)

ATLAS 2AS CENTAUR R/B - Pass Details

Date: 15 May 2026
Orbit: 1053 x 1158 km, 63.7° (Epoch: 10 June)

Event Time Altitude Azimuth Distance (km) Brightness Sun altitude
Rises 20:48:46 0° 267° (W) 3,877 6.3 -7.8°
Reaches altitude 10° 20:51:40 10° 275° (W) 2,909 5.8 -8.1°
Maximum altitude 20:58:01 38° 343° (NNW) 1,560 4.3 -8.7°
Drops below altitude 10° 21:04:19 10° 51° (NE) 2,879 5.0 -9.3°
Sets 21:07:10 0° 59° (ENE) 3,833 5.5 -9.6°
